Munising, MI

5:17 AM EDT on October 18, 2017 (GMT -0400)
Munising

Weather History for KP53 - October, 2013

Change the Weather History Date:

Sunday, October 20, 2013

  Actual Average (KISQ) Record (KISQ)
Temperature  
Mean Temperature 41 °F -  
Max Temperature 50 °F 52 °F 64 °F (1950)
Min Temperature 32 °F 35 °F 23 °F (1974)
Degree Days  
Heating Degree Days 24    
Moisture  
Dew Point 34 °F    
Average Humidity 79    
Maximum Humidity 92    
Minimum Humidity 52    
Precipitation  
Precipitation 0.10 in - - ()
Sea Level Pressure  
Sea Level Pressure 29.74 in    
Wind  
Wind Speed 5 mph (South)    
Max Wind Speed 8 mph    
Max Gust Speed -    
Averages and records for this station are not official NWS values.
T = Trace of Precipitation, MM = Missing Value Source: NWS Daily Summary

Daily Weather History Graph

Daily Weather History Graph

Search for Another Location

Airport or City:

Trip Planner

Search our weather history database for the weather conditions in past years. The results will help you decide how hot, cold, wet, or windy it might be!

Date:

Astronomy

Oct. 20, 2013 Rise Set
Actual Time 8:11 AM EDT 6:50 PM EDT
Civil Twilight 7:40 AM EDT 7:21 PM EDT
Nautical Twilight 7:05 AM EDT 7:56 PM EDT
Astronomical Twilight 6:30 AM EDT 8:31 PM EDT
Moon 7:52 PM EDT (10/20) 9:54 AM EDT (10/20)
Length of Visible Light 11h 40m
Length of Day
10h 39m
Full, 97% of the Moon is Illuminated
Oct 20
Full
Oct 26
Last Quarter
Nov 3
New
Nov 10
First Quarter
Nov 17
Full

Hourly Weather History & Observations

Time (EDT) Temp. Windchill Dew Point Humidity Pressure Visibility Wind Dir Wind Speed Gust Speed Precip Events Conditions
12:56 AM 33.1 °F 26.9 °F 30.0 °F 89% 29.70 in - South 6.9 mph - N/A   Unknown
1:56 AM 32.0 °F 27.5 °F 28.9 °F 88% 29.70 in - South 4.6 mph - N/A   Unknown
2:56 AM 32.0 °F 27.5 °F 28.9 °F 88% 29.70 in - South 4.6 mph - N/A   Unknown
3:56 AM 32.0 °F 26.4 °F 28.9 °F 88% 29.70 in - South 5.8 mph - N/A   Unknown
4:56 AM 32.0 °F 24.8 °F 28.9 °F 88% 29.71 in - South 8.1 mph - N/A   Unknown
5:56 AM 34.0 °F 28.0 °F 32.0 °F 92% 29.73 in - South 6.9 mph - N/A   Unknown
7:56 AM 32.0 °F 26.4 °F 30.0 °F 92% 29.75 in - South 5.8 mph - N/A   Unknown
8:56 AM 33.1 °F 26.1 °F 30.9 °F 92% 29.77 in - South 8.1 mph - N/A   Unknown
9:56 AM 36.0 °F 30.3 °F 33.1 °F 89% 29.78 in - South 6.9 mph - N/A   Unknown
10:56 AM 42.1 °F 39.2 °F 37.9 °F 85% 29.78 in - South 4.6 mph - N/A   Unknown
11:56 AM 46.9 °F - 39.0 °F 74% 29.78 in - Calm Calm - N/A   Unknown
12:56 PM 48.0 °F - 35.1 °F 61% 29.79 in - Calm Calm - N/A   Unknown
1:56 PM 48.9 °F - 35.1 °F 59% 29.78 in - WSW 6.9 mph - N/A   Unknown
2:56 PM 50.0 °F - 34.0 °F 54% 29.76 in - SSW 5.8 mph - N/A   Unknown
3:56 PM 48.9 °F - 32.0 °F 52% 29.76 in - South 6.9 mph - N/A   Unknown
5:56 PM 46.9 °F - 35.1 °F 63% 29.75 in - South 4.6 mph - N/A   Unknown
6:56 PM 45.0 °F 43.5 °F 34.0 °F 65% 29.75 in - South 3.5 mph - N/A   Unknown
7:56 PM 44.1 °F 42.5 °F 35.1 °F 71% 29.75 in - South 3.5 mph - N/A   Unknown
8:56 PM 42.1 °F 40.2 °F 37.9 °F 85% 29.75 in - South 3.5 mph - 0.02 in   Unknown
9:56 PM 41.0 °F 38.0 °F 37.0 °F 86% 29.74 in - Variable 4.6 mph - 0.04 in   Unknown
10:56 PM 41.0 °F 39.0 °F 37.0 °F 86% 29.69 in - ESE 3.5 mph - 0.01 in   Unknown
11:56 PM 42.1 °F - 37.9 °F 85% 29.66 in - Calm Calm - 0.03 in   Unknown